If you wish to contribute or participate in the discussions about articles you are invited to join SKYbrary as a registered user

 Actions

Annaba/Rabah Bitat

From SKYbrary Wiki

DABB
Airport
ICAO: DABB
Summary
Name Annaba/Rabah Bitat
Region Africa
Territory Algeria DZ.gif
Location Annaba
Serving
Coordinates 36° 49' 20.00" N, 7° 48' 34.00" E
Runways
Designator Length Width Surface ROPS
1/19 3000 m9,842.52 ft
45 m147.638 ft
ASP yes/yes
5/23 2290 m7,513.123 ft
45 m147.638 ft
ASP yes/yes


METAR
Observation DABB 232000Z 04006KT CAVOK 17/13 Q1016
Station Annaba
Date/Time 23 May 2019 20:00:00
Wind direction 40°
Wind speed 06 kts
Lowest cloud amount clouds and visibility OK
Temperature 17°C
Dew point 13°C
Humidity 77%
QNH 1016 hPa
Weather condition n/a

Annaba/Rabah Bitat Airport

ICAO: DABB IATA: AAE

Description

Rabah Bitat Airport, formerly known as Les Salines Airport, and popularly as El Mellah Airport is an international airport located 9 km south of Annaba, a city in Algeria.

Climatology

Maps

Terrain

Loading map...

Airport Layout

Loading map...


Accidents & Serious Incidents at or in vicinity of DABB

None on SKYbrary